"Pseudo-MPEC" for P21XFw3

Created 2024 Sep 11 3:22:16 UT using Find_Orb

Click here for an explanation of pseudo-MPECs

 
 Astrometry: 
     P21XFw3* C2024 08 31.60923006 38 07.380+25 39 51.88   ~8VFqx21.16wXNEOCPF52
     P21XFw3  C2024 08 31.61450006 38 07.623+25 39 51.67   ~8VFqx22.12wXNEOCPF52
     P21XFw3  C2024 08 31.61975106 38 07.883+25 39 51.82   ~8VFqx21.33wXNEOCPF52
     P21XFw3 3C2024 09 01.62048506 38 56.289+25 39 16.32   ~91FM 22.38GVNEOCPT14
     P21XFw3 3C2024 09 01.62169806 38 56.330+25 39 16.19   ~91FMx22.08GVNEOCPT14
     P21XFw3 3C2024 09 01.62290706 38 56.400+25 39 16.13   ~91FM 22.10GVNEOCPT14
     P21XFw3  C2024 09 04.61930606 41 18.668+25 37 27.89   ~94KMx21.77GVNEOCPF52
     P21XFw3  C2024 09 04.62013706 41 18.689+25 37 27.90   ~94KMx21.74GVNEOCPF52
     P21XFw3  C2024 09 05.62104006 42 05.315+25 36 51.31   ~96IM 21.60GVNEOCPF52
     P21XFw3  C2024 09 05.62187006 42 05.374+25 36 51.21   ~96IM 21.81GVNEOCPF52
     P21XFw3  C2024 09 06.61435306 42 51.126+25 36 14.47   ~96IMx21.91GVNEOCPF51
     P21XFw3  C2024 09 06.61517406 42 51.140+25 36 14.44   ~96IMx21.31GVNEOCPF51
     P21XFw3  C2024 09 10.62125906 45 51.142+25 33 45.10   ~9ANMx21.13GVNEOCPF52
     P21XFw3  C2024 09 10.62209106 45 51.167+25 33 45.10   ~9ANMx20.67GVNEOCPF52

Station data:
(F51) Pan-STARRS 1, Haleakala  (N20.707234 W156.255910)  US/Hawaii.
   Observers J. Bulger, T. Lowe, A. Schultz, M. Willman. Measurers K.
   Chambers, S. Chastel, T. de Boer, L. Denneau, J. Fairlamb, H. Flewelling,
   M. Huber, C.-C. Lin, E. Magnier, Y. Ramanjooloo, R. Wainscoat, R. Weryk.
   1.8-m Ritchey-Chrétien + CCD.
(F52) Pan-STARRS 2, Haleakala  (N20.707382 W156.255910)  US/Hawaii.
   Observers J. Bulger, T. Dukes, T. Lowe, A. Schultz, M. Willman. Measurers
   K. Chambers, S. Chastel, T. de Boer, L. Denneau, J. Fairlamb, H.
   Flewelling, M. Huber, C.-C. Lin, E. Magnier, Y. Ramanjooloo, R. Wainscoat,
   R. Weryk. 1.8-m Ritchey-Chrétien + CCD.
(T14) Mauna Kea-UH/Tholen NEO Follow-Up (CFHT)  (N19.825252 W155.468876)
   US/Hawaii.  Observer R. Weryk. 3.6-m Canada-France-Hawaii Telescope.

Orbital elements:  P21XFw3
   Perihelion 2024 Jul 6.03561 TT =  0:51:16 (JD 2460497.53561)
Epoch 2024 Sep  5.0 TT = JDT 2460558.5   Earth MOID: 0.0029   Ve: 0.0030
M 117.11572391                      Me: 0.0341                   AutoNEOCP
n   1.92105130     Peri.  355.82347
a   0.64088003     Node   235.48169
e   0.9889412      Incl.   22.94562                       (J2000 ecliptic)
P   0.513/187.394d H   19.63    G   0.15   q 0.00708733  Q 1.27467272
4 of 14 observations 2024 Sept. 1-5; mean residual 0".12
Residuals in arcseconds: 
240831 F52( 3.1-  .27-)   240901 T14  .12-  .06-    240906 F51( 1.0-  .71-)   
240831 F52( 3.1-  .37-)   240904 F52( .61+  .29+)   240906 F51( 1.3-  .72-)   
240831 F52( 2.9-  .11-)   240904 F52( .39+  .32+)   240910 F52( 5.2+  7.4-)   
240901 T14  .12-  .08+    240905 F52  .25-  .05+    240910 F52( 5.1+  7.3-)   
240901 T14( .32-  .02-)   240905 F52  .05+  .03-    

Ephemerides (geocentric):
Date (UTC) HH   RA             Dec           delta  r     elong  mag " sig PA
---- --------  ------------   ------------  ------ ------ -----  --- --------
2024 09 11 03  06 46 12.281   +25 33 35.13  1.1432 1.2098  68.1 22.2  190  94
2024 09 11 04  06 46 14.084   +25 33 33.69  1.1428 1.2100  68.2 22.2  192  94
2024 09 11 05  06 46 15.886   +25 33 32.25  1.1423 1.2102  68.2 22.2  195  94
2024 09 11 06  06 46 17.687   +25 33 30.81  1.1418 1.2104  68.2 22.2  197  94
2024 09 11 07  06 46 19.487   +25 33 29.37  1.1413 1.2106  68.3 22.2  200  94
2024 09 11 08  06 46 21.286   +25 33 27.93  1.1408 1.2108  68.3 22.2  203  94
2024 09 11 09  06 46 23.083   +25 33 26.49  1.1403 1.2110  68.3 22.2  206  94
2024 09 11 10  06 46 24.880   +25 33 25.05  1.1399 1.2112  68.4 22.2  208  94
2024 09 11 11  06 46 26.675   +25 33 23.61  1.1394 1.2114  68.4 22.2  211  94
2024 09 11 12  06 46 28.469   +25 33 22.18  1.1389 1.2116  68.4 22.2  214  94
2024 09 11 13  06 46 30.262   +25 33 20.74  1.1384 1.2118  68.5 22.2  216  94
2024 09 11 14  06 46 32.053   +25 33 19.31  1.1379 1.2120  68.5 22.2  219  94
2024 09 11 15  06 46 33.844   +25 33 17.88  1.1374 1.2122  68.5 22.2  222  94
2024 09 11 16  06 46 35.633   +25 33 16.45  1.1369 1.2124  68.6 22.2  225  94
2024 09 11 17  06 46 37.421   +25 33 15.02  1.1364 1.2126  68.6 22.2  227  94
2024 09 11 18  06 46 39.208   +25 33 13.59  1.1360 1.2128  68.7 22.2  230  94
2024 09 11 19  06 46 40.994   +25 33 12.16  1.1355 1.2130  68.7 22.2  233  94
2024 09 11 20  06 46 42.779   +25 33 10.73  1.1350 1.2132  68.7 22.2  236  94
2024 09 11 21  06 46 44.562   +25 33 09.31  1.1345 1.2134  68.8 22.2  239  94
2024 09 11 22  06 46 46.344   +25 33 07.88  1.1340 1.2136  68.8 22.2  242  94
2024 09 11 23  06 46 48.125   +25 33 06.46  1.1335 1.2138  68.8 22.2  244  94
2024 09 12 00  06 46 49.905   +25 33 05.03  1.1330 1.2140  68.9 22.2  247  94
2024 09 12 01  06 46 51.684   +25 33 03.61  1.1325 1.2142  68.9 22.2  250  94
2024 09 12 02  06 46 53.461   +25 33 02.19  1.1320 1.2144  68.9 22.2  253  94
2024 09 12 03  06 46 55.237   +25 33 00.77  1.1315 1.2146  69.0 22.2  256  94
2024 09 12 04  06 46 57.012   +25 32 59.35  1.1310 1.2148  69.0 22.2  259  94
2024 09 12 05  06 46 58.786   +25 32 57.93  1.1306 1.2150  69.0 22.2  262  94
2024 09 12 06  06 47 00.559   +25 32 56.52  1.1301 1.2152  69.1 22.2  265  94
2024 09 12 07  06 47 02.330   +25 32 55.10  1.1296 1.2154  69.1 22.2  268  94
2024 09 12 08  06 47 04.100   +25 32 53.69  1.1291 1.2156  69.1 22.2  271  94
2024 09 12 09  06 47 05.869   +25 32 52.27  1.1286 1.2158  69.2 22.2  274  94
2024 09 12 10  06 47 07.637   +25 32 50.86  1.1281 1.2160  69.2 22.2  277  94
2024 09 12 11  06 47 09.403   +25 32 49.45  1.1276 1.2162  69.2 22.2  280  94
2024 09 12 12  06 47 11.169   +25 32 48.04  1.1271 1.2164  69.3 22.2  283  94
2024 09 12 13  06 47 12.933   +25 32 46.63  1.1266 1.2166  69.3 22.2  286  94
2024 09 12 14  06 47 14.695   +25 32 45.23  1.1261 1.2168  69.3 22.2  289  94
2024 09 12 15  06 47 16.457   +25 32 43.82  1.1256 1.2170  69.4 22.2  292  94
2024 09 12 16  06 47 18.217   +25 32 42.41  1.1251 1.2172  69.4 22.2  295  94
2024 09 12 17  06 47 19.976   +25 32 41.01  1.1246 1.2174  69.4 22.2  298  94
2024 09 12 18  06 47 21.734   +25 32 39.61  1.1241 1.2176  69.5 22.2  301  94
2024 09 12 19  06 47 23.491   +25 32 38.21  1.1236 1.2178  69.5 22.2  304  94
2024 09 12 20  06 47 25.246   +25 32 36.81  1.1231 1.2180  69.5 22.2  307  94
2024 09 12 21  06 47 27.000   +25 32 35.41  1.1226 1.2182  69.6 22.2  310  94
2024 09 12 22  06 47 28.753   +25 32 34.01  1.1221 1.2184  69.6 22.2  314  94
2024 09 12 23  06 47 30.504   +25 32 32.61  1.1216 1.2185  69.6 22.2  317  94
2024 09 13 00  06 47 32.255   +25 32 31.22  1.1211 1.2187  69.7 22.2  320  94
2024 09 13 01  06 47 34.004   +25 32 29.82  1.1206 1.2189  69.7 22.2  323  94
2024 09 13 02  06 47 35.751   +25 32 28.43  1.1201 1.2191  69.7 22.2  326  94